Wind_Speed
7 7 7 6 5 5 5 4 4 3 3 1 1 1 2 1 2 2 2 1 1 1 2 2 3 3 3 4 4 5 6 6 6 7 7 8 10 11 11 11 11 11 11
6 6 6 6 5 4 4 4 4 4 3 2 2 3 3 3 2 2 2 2 2 3 3 3 4 4 4 4 5 6 7 7 7 8 9 9 10 11 11 11 11 12 12
8 7 7 6 7 5 5 5 5 3 3 2 3 4 3 3 2 2 2 3 3 4 4 4 5 5 4 5 6 7 7 8 8 8 9 9 10 10 11 12 12 12 13
8 9 8 7 7 6 5 5 4 4 4 4 4 4 3 2 2 3 3 4 3 3 4 5 5 5 5 6 7 8 8 8 8 8 9 9 10 11 11 12 13 13 13
8 8 8 7 7 6 5 6 5 5 5 5 4 3 3 3 3 3 4 4 4 4 4 5 6 7 7 7 7 8 8 9 9 9 9 9 9 10 11 12 13 14 14
7 8 7 7 7 7 6 7 6 5 5 5 5 4 4 4 4 4 5 5 5 5 6 6 8 8 8 8 8 8 9 9 9 10 10 10 10 10 11 13 14 14 15
8 8 8 8 8 7 7 7 6 5 5 5 6 5 5 5 5 6 6 5 6 6 6 8 8 8 8 9 9 9 10 10 10 10 10 11 11 11 12 13 14 15 15
8 8 8 8 8 7 8 7 6 5 5 5 5 6 6 6 6 6 6 6 6 6 6 7 8 8 8 10 10 10 10 11 11 11 11 11 11 11 12 13 13 14 15
8 8 8 9 8 8 8 8 7 7 6 6 6 6 7 7 7 7 8 7 7 7 7 8 8 9 10 10 10 11 11 11 11 12 11 11 11 11 13 13 13 14 15
8 8 8 9 8 8 9 9 8 8 8 7 8 8 8 8 9 9 8 8 9 9 9 10 10 10 11 12 13 13 13 13 13 13 13 13 13 13 13 14 15 15 15
8 8 8 8 8 8 9 10 10 10 9 9 9 9 9 9 10 9 9 10 10 10 11 11 12 12 12 13 14 14 14 14 14 14 14 14 14 14 14 15 16 17 16
9 9 8 9 9 9 10 11 11 11 10 10 10 10 10 10 10 9 10 10 11 11 12 13 13 14 14 14 14 15 15 15 15 15 15 15 15 15 16 16 17 18 17
9 10 10 10 9 9 10 11 11 11 11 11 11 11 11 11 11 10 10 11 11 12 13 14 14 14 15 15 15 15 16 16 15 16 16 16 16 17 17 18 18 18 18
11 11 11 10 10 10 11 11 12 12 11 11 11 11 11 12 12 12 11 12 12 13 14 15 15 15 16 16 16 16 17 17 17 17 17 18 18 18 19 19 19 19 20
11 11 11 11 10 10 11 12 12 13 12 12 12 12 13 13 13 13 13 13 14 14 15 16 17 17 17 17 18 18 18 18 18 18 18 19 19 19 19 20 20 20 20
12 12 12 11 11 11 12 13 13 14 14 13 13 13 13 14 14 14 15 15 15 15 16 17 18 18 18 18 19 19 19 19 19 18 19 19 19 20 20 20 20 21 21
13 13 12 12 13 13 14 15 15 15 15 15 15 15 15 15 15 16 16 16 17 17 17 17 18 19 20 20 20 20 20 20 19 19 20 20 20 20 20 20 20 21 21
14 14 15 15 15 15 16 16 16 16 16 16 16 16 16 16 17 17 18 18 19 19 19 20 20 20 21 22 21 21 21 21 21 21 20 20 21 21 21 21 21 21 22
16 17 17 17 17 17 17 17 18 17 17 17 17 17 18 18 18 19 20 20 20 21 21 21 22 22 22 22 22 22 22 22 21 21 21 21 21 21 21 22 22 22 23
18 18 18 19 19 19 19 19 20 19 19 19 19 19 19 19 20 20 20 21 22 22 23 23 23 23 23 23 22 22 22 22 22 22 22 22 23 23 22 23 23 24 24
20 20 20 20 21 21 21 22 22 22 21 21 21 21 21 22 22 22 22 22 23 23 24 24 24 24 24 24 23 22 22 22 23 23 23 23 24 24 24 24 25 25 25
21 22 22 22 22 23 24 24 24 24 23 23 23 23 23 24 24 24 24 24 24 25 25 25 24 24 24 24 23 23 23 23 23 24 24 25 25 25 25 25 25 26 26
22 23 24 24 25 25 25 26 26 25 25 25 25 25 25 24 25 25 25 25 25 25 26 26 25 24 24 24 24 24 24 24 24 25 25 25 25 25 25 26 26 26 26
25 25 25 26 26 26 26 27 27 28 27 26 26 26 25 25 26 26 26 26 26 27 27 26 26 25 24 24 24 24 24 25 25 25 25 25 25 25 25 25 25 25 25
27 27 26 26 27 27 28 29 29 29 29 28 27 27 26 26 26 27 27 27 26 26 26 26 25 24 24 25 25 25 25 25 26 26 26 26 25 25 24 25 25 25 25
27 28 28 28 28 29 29 29 30 30 30 29 28 28 28 27 27 28 27 26 25 25 25 25 25 25 24 24 25 25 25 25 26 25 25 26 25 25 24 24 25 25 25
Wind_Direction
62 68 60 57 58 60 62 67 60 61 57 25 46 34 13 10 11 0 350 333 250 234 247 253 262 258 255 259 255 254 261 261 260 255 254 259 256 253 256 259 254 252 252
57 54 55 56 49 51 51 52 50 31 32 32 31 17 12 8 5 344 335 325 302 293 297 279 270 269 275 281 274 267 269 265 261 258 260 262 259 257 256 255 255 256 255
55 47 50 50 43 37 33 39 31 19 41 39 23 20 19 6 348 336 328 327 320 309 301 294 286 279 275 282 279 275 277 276 269 265 266 267 266 263 261 260 262 259 255
52 49 44 42 39 35 35 34 32 35 29 26 23 17 10 351 330 328 327 328 319 303 295 293 293 292 289 288 286 284 287 287 286 282 276 275 271 266 262 259 258 258 256
50 46 41 41 39 29 29 28 28 21 18 16 12 3 345 333 322 319 316 317 307 301 295 287 284 290 297 295 289 285 286 286 284 283 282 280 276 267 263 261 259 257 257
41 39 37 36 33 27 24 25 21 18 16 8 358 354 347 332 318 313 308 304 297 297 301 297 292 290 295 298 297 292 291 289 287 284 283 283 283 276 270 266 264 260 260
34 32 32 26 23 18 17 18 16 13 6 354 346 345 338 325 315 309 307 304 304 304 303 300 299 295 299 299 299 297 297 297 294 290 285 280 280 278 272 269 265 263 263
28 24 25 23 18 17 15 12 8 2 354 344 337 331 325 319 316 312 309 306 305 305 303 303 300 300 297 296 296 295 295 296 296 293 289 282 276 274 273 269 264 263 263
19 21 19 17 18 13 6 356 350 348 340 333 324 320 315 313 310 312 312 308 305 305 303 304 299 297 298 295 297 298 295 293 296 294 291 288 282 277 271 272 268 266 265
8 8 6 6 6 3 358 350 343 337 334 329 322 317 315 314 311 309 309 307 303 301 303 303 300 298 297 299 299 301 301 299 297 294 289 289 290 283 281 276 272 270 268
5 360 360 359 356 354 349 346 342 338 330 324 320 317 316 314 311 306 305 304 305 302 300 299 299 298 296 296 297 300 301 299 297 294 289 287 289 287 284 282 278 275 271
2 359 354 351 349 347 346 343 340 336 332 328 322 318 314 312 310 307 305 304 304 302 301 300 301 300 299 298 297 298 297 296 295 295 290 288 287 286 285 283 279 276 273
353 349 346 344 342 340 338 336 335 331 326 325 321 318 315 313 309 305 305 304 303 302 301 301 301 300 299 298 298 297 296 295 294 293 291 288 286 284 284 283 278 274 272
338 336 335 335 334 335 335 332 333 329 323 322 320 317 314 311 308 305 304 301 300 300 300 300 301 302 301 299 298 296 295 296 293 291 289 286 284 283 283 282 279 275 273
328 326 324 323 323 327 330 330 328 327 322 318 317 314 311 307 307 306 303 301 300 298 298 299 300 301 303 300 299 297 296 295 294 290 287 285 283 282 283 283 279 277 276
324 321 317 317 317 318 321 325 323 323 320 316 313 311 308 304 302 302 300 301 302 301 300 299 299 300 300 301 299 296 294 294 292 290 287 286 285 284 285 284 283 280 278
317 318 317 316 316 316 319 320 321 321 321 316 313 309 306 302 301 301 302 302 303 303 302 300 299 298 298 297 297 295 294 293 293 292 290 287 284 284 286 283 281 279 279
313 314 315 313 313 311 311 314 317 317 317 315 311 307 302 301 300 300 300 301 301 301 301 299 299 298 298 297 295 292 291 290 291 292 291 290 286 284 284 283 280 279 279
304 305 306 308 307 306 307 308 309 312 312 311 307 305 302 300 299 298 297 297 299 299 298 297 296 296 296 296 295 292 290 291 289 290 291 291 290 289 287 284 282 280 280
300 303 303 303 303 302 303 305 306 308 308 309 306 303 303 300 299 297 295 295 296 297 297 296 294 294 294 293 293 292 291 292 290 290 290 290 290 289 286 284 283 282 282
295 297 299 301 300 299 300 301 302 303 304 304 304 303 301 301 300 297 296 296 296 297 296 295 293 293 293 293 293 291 291 291 291 291 291 291 291 288 285 283 282 282 281
293 293 294 297 297 297 299 299 300 301 300 300 300 300 300 300 299 297 296 296 296 296 295 294 292 292 291 291 291 291 291 290 290 291 291 291 291 290 287 283 281 281 279
294 293 291 292 293 295 296 297 300 299 299 299 299 298 299 300 300 299 296 295 296 296 296 295 293 292 292 291 291 291 291 291 291 290 291 292 290 290 288 284 282 280 279
291 292 292 292 292 293 294 296 299 299 298 297 296 297 298 298 297 297 297 295 295 295 295 295 294 293 292 292 290 290 289 289 290 291 292 292 290 289 288 286 283 281 281
290 291 291 291 292 291 292 294 295 297 297 297 296 295 295 296 297 296 296 296 294 294 294 294 294 293 293 294 294 292 291 291 292 292 292 292 290 290 288 288 287 284 281
287 288 289 289 291 292 291 292 293 295 297 297 296 294 293 293 294 296 294 295 293 292 293 294 293 293 294 294 296 294 294 294 294 293 292 291 291 289 289 289 288 286 284
Height
5884 5883 5883 5882 5881 5880 5879 5879 5878 5878 5877 5877 5876 5876 5876 5875 5875 5874 5874 5873 5872 5871 5871 5871 5870 5870 5869 5868 5868 5868 5868 5867 5867 5867 5866 5866 5866 5866 5866 5866 5866 5866 5867
5885 5884 5883 5882 5881 5880 5879 5879 5879 5878 5877 5877 5876 5876 5875 5875 5874 5874 5873 5873 5872 5871 5871 5870 5870 5869 5868 5867 5867 5866 5866 5865 5865 5865 5865 5864 5864 5864 5864 5864 5864 5864 5864
5885 5885 5884 5883 5882 5881 5880 5879 5879 5878 5878 5877 5877 5876 5875 5874 5874 5873 5873 5872 5871 5871 5870 5870 5869 5868 5867 5866 5866 5865 5864 5864 5863 5862 5862 5861 5861 5861 5861 5861 5861 5861 5861
5886 5885 5884 5883 5882 5881 5880 5880 5879 5878 5878 5877 5876 5875 5875 5874 5873 5872 5872 5871 5870 5870 5869 5868 5867 5866 5866 5865 5864 5863 5862 5861 5861 5860 5859 5858 5858 5858 5858 5858 5858 5858 5858
5887 5886 5885 5884 5883 5882 5881 5880 5879 5878 5878 5877 5876 5875 5874 5873 5873 5872 5871 5870 5869 5868 5867 5866 5866 5865 5864 5863 5862 5861 5860 5859 5858 5857 5856 5855 5855 5854 5854 5854 5854 5854 5854
5888 5887 5886 5885 5883 5882 5881 5880 5879 5878 5878 5877 5876 5875 5873 5873 5872 5871 5870 5868 5867 5867 5865 5864 5864 5863 5862 5861 5860 5858 5857 5856 5855 5854 5854 5853 5852 5851 5851 5851 5851 5850 5850
5889 5887 5886 5885 5883 5882 5881 5880 5879 5878 5877 5876 5875 5874 5873 5872 5871 5870 5868 5867 5866 5864 5863 5862 5861 5860 5859 5858 5857 5856 5854 5853 5852 5851 5850 5849 5848 5848 5847 5846 5846 5846 5846
5889 5888 5886 5885 5884 5882 5881 5880 5879 5877 5876 5875 5874 5873 5872 5871 5869 5868 5867 5865 5864 5862 5861 5860 5859 5858 5857 5856 5854 5853 5852 5850 5849 5848 5847 5846 5845 5844 5843 5842 5842 5842 5842
5889 5888 5886 5885 5884 5882 5881 5880 5878 5877 5875 5874 5873 5872 5871 5869 5868 5866 5865 5863 5862 5860 5858 5858 5856 5855 5854 5852 5851 5850 5848 5847 5846 5845 5844 5843 5842 5840 5839 5838 5838 5837 5837
5889 5888 5886 5885 5883 5882 5881 5879 5877 5875 5874 5872 5871 5869 5868 5867 5866 5864 5863 5861 5860 5858 5856 5855 5854 5852 5851 5849 5848 5847 5845 5844 5842 5841 5840 5839 5837 5836 5835 5835 5834 5833 5832
5889 5887 5885 5884 5882 5881 5879 5877 5876 5874 5872 5870 5869 5867 5866 5864 5863 5862 5860 5859 5857 5855 5854 5852 5851 5850 5848 5846 5845 5843 5841 5840 5838 5837 5835 5834 5833 5832 5831 5830 5829 5828 5827
5889 5887 5885 5883 5881 5880 5878 5876 5874 5872 5870 5868 5866 5865 5863 5862 5861 5859 5857 5856 5854 5853 5851 5849 5847 5846 5844 5842 5841 5839 5837 5835 5834 5832 5831 5830 5828 5827 5826 5825 5824 5823 5822
5888 5886 5884 5882 5880 5878 5876 5874 5872 5870 5868 5866 5864 5862 5861 5859 5858 5856 5854 5853 5851 5850 5848 5846 5844 5842 5840 5838 5836 5835 5833 5831 5829 5828 5826 5825 5824 5822 5821 5820 5818 5817 5816
5886 5885 5883 5881 5879 5877 5875 5873 5870 5867 5865 5863 5862 5860 5858 5856 5855 5853 5851 5850 5848 5846 5844 5842 5840 5838 5836 5834 5832 5830 5828 5826 5824 5823 5821 5820 5818 5817 5816 5814 5812 5811 5810
5885 5883 5881 5879 5877 5875 5873 5870 5868 5866 5863 5861 5859 5857 5855 5853 5851 5849 5848 5846 5844 5842 5841 5838 5836 5834 5832 5830 5828 5826 5824 5821 5819 5817 5815 5814 5812 5811 5810 5808 5807 5805 5804
5883 5881 5878 5876 5874 5872 5870 5868 5865 5863 5861 5858 5856 5854 5852 5850 5848 5846 5844 5841 5839 5837 5836 5834 5831 5829 5827 5825 5823 5820 5818 5816 5814 5812 5810 5808 5807 5805 5804 5802 5801 5799 5798
5880 5878 5876 5874 5872 5870 5867 5865 5863 5860 5858 5855 5853 5851 5848 5846 5844 5842 5839 5837 5835 5833 5831 5829 5826 5824 5821 5819 5817 5815 5813 5810 5808 5807 5804 5803 5801 5799 5797 5796 5794 5793 5792
5877 5875 5873 5871 5869 5867 5864 5862 5860 5857 5854 5852 5849 5847 5844 5842 5840 5837 5835 5833 5830 5828 5826 5823 5821 5818 5816 5813 5811 5809 5807 5805 5803 5801 5799 5797 5795 5793 5791 5789 5788 5786 5785
5873 5871 5869 5867 5865 5863 5860 5858 5856 5853 5850 5848 5845 5843 5840 5837 5835 5832 5830 5828 5825 5823 5820 5818 5815 5813 5810 5807 5805 5803 5801 5798 5796 5794 5792 5790 5788 5786 5784 5782 5781 5779 5778
5868 5867 5865 5862 5860 5858 5856 5853 5851 5849 5846 5843 5840 5838 5835 5832 5829 5827 5824 5822 5819 5816 5814 5812 5809 5807 5804 5801 5799 5796 5794 5792 5789 5787 5786 5784 5782 5779 5777 5776 5774 5772 5771
5863 5861 5859 5857 5855 5853 5851 5848 5846 5843 5841 5838 5835 5832 5830 5827 5824 5821 5818 5816 5813 5810 5807 5805 5802 5800 5797 5795 5792 5790 5787 5785 5783 5780 5779 5777 5774 5772 5770 5768 5767 5765 5763
5858 5856 5853 5851 5849 5847 5845 5842 5840 5837 5835 5832 5829 5827 5824 5821 5818 5815 5812 5809 5806 5803 5801 5798 5795 5792 5790 5787 5785 5783 5780 5778 5776 5774 5772 5769 5767 5765 5763 5761 5759 5757 5755
5851 5849 5847 5845 5843 5840 5838 5835 5833 5830 5828 5825 5823 5820 5817 5814 5811 5808 5805 5802 5799 5796 5794 5791 5788 5785 5783 5780 5778 5776 5773 5771 5769 5766 5764 5762 5759 5757 5755 5752 5751 5749 5747
5845 5843 5840 5838 5836 5834 5831 5829 5826 5823 5821 5818 5816 5813 5810 5807 5804 5801 5798 5795 5792 5789 5786 5783 5780 5778 5776 5773 5771 5768 5766 5764 5761 5759 5756 5754 5752 5749 5747 5745 5743 5741 5740
5838 5835 5833 5831 5829 5826 5824 5821 5819 5816 5813 5811 5808 5805 5803 5800 5797 5794 5791 5788 5785 5781 5778 5775 5773 5770 5768 5766 5763 5761 5758 5756 5754 5751 5749 5747 5744 5742 5740 5738 5735 5733 5732
5830 5828 5825 5823 5821 5819 5816 5814 5811 5808 5805 5802 5800 5797 5794 5792 5789 5785 5782 5779 5777 5774 5771 5768 5765 5763 5761 5758 5756 5754 5751 5749 5746 5744 5742 5739 5737 5735 5733 5731 5728 5726 5724